Fort Meade, MD

9:56 AM EDT on September 20, 2017 (GMT -0400)
Tipton

Weather History for KFME - November, 2013

Change the Weather History Date:

Saturday, November 2, 2013

  Actual Average (KBWI) Record (KBWI)
Temperature  
Mean Temperature 55 °F -  
Max Temperature 68 °F 66 °F 84 °F (1950)
Min Temperature 42 °F 45 °F 29 °F (1976)
Degree Days  
Heating Degree Days 10    
Growing Degree Days 5 (Base 50)    
Moisture  
Dew Point 43 °F    
Average Humidity 71    
Maximum Humidity 100    
Minimum Humidity 40    
Precipitation  
Precipitation 0.00 in - - ()
Sea Level Pressure  
Sea Level Pressure 29.75 in    
Wind  
Wind Speed 2 mph (WNW)    
Max Wind Speed 15 mph    
Max Gust Speed 22 mph    
Visibility 8 miles    
Events      
Averages and records for this station are not official NWS values.
T = Trace of Precipitation, MM = Missing Value Source: NWS Daily Summary

Daily Weather History Graph

Daily Weather History Graph

Search for Another Location

Airport or City:

Trip Planner

Search our weather history database for the weather conditions in past years. The results will help you decide how hot, cold, wet, or windy it might be!

Date:

Astronomy

Nov. 02, 2013 Rise Set
Actual Time 7:35 AM EDT 6:04 PM EDT
Civil Twilight 7:08 AM EDT 6:32 PM EDT
Nautical Twilight 6:36 AM EDT 7:04 PM EDT
Astronomical Twilight 6:05 AM EDT 7:35 PM EDT
Moon 6:31 AM EDT (11/2) 5:34 PM EDT (11/2)
Length of Visible Light 11h 24m
Length of Day
10h 28m
Waning Crescent, 1% of the Moon is Illuminated
Nov 2
Waning Crescent
Nov 3
New
Nov 10
First Quarter
Nov 17
Full
Nov 25
Last Quarter

Hourly Weather History & Observations

Time (EDT) Temp. Windchill Dew Point Humidity Pressure Visibility Wind Dir Wind Speed Gust Speed Precip Events Conditions
12:15 AM 51.8 °F - 50.0 °F 94% 29.68 in 7.0 mi Calm Calm - N/A   Clear
12:33 AM 50.0 °F - 50.0 °F 100% 29.68 in 5.0 mi Calm Calm - N/A   Clear
12:54 AM 50.0 °F - 48.2 °F 94% 29.68 in 4.0 mi Calm Calm - N/A   Scattered Clouds
1:15 AM 50.0 °F - 50.0 °F 100% 29.68 in 5.0 mi Calm Calm - N/A   Mostly Cloudy
1:33 AM 51.8 °F - 50.0 °F 94% 29.67 in 2.5 mi Calm Calm - N/A   Scattered Clouds
1:54 AM 50.0 °F - 50.0 °F 100% 29.68 in 1.2 mi Calm Calm - N/A   Unknown
2:15 AM 50.0 °F - 50.0 °F 100% 29.67 in 5.0 mi Calm Calm - N/A   Mostly Cloudy
2:33 AM 50.0 °F - 50.0 °F 100% 29.68 in 7.0 mi Calm Calm - N/A   Overcast
2:54 AM 51.8 °F - 50.0 °F 94% 29.69 in 7.0 mi Calm Calm - N/A   Overcast
3:15 AM 50.0 °F - 50.0 °F 100% 29.68 in 7.0 mi Calm Calm - N/A   Overcast
3:33 AM 50.0 °F - 50.0 °F 100% 29.68 in 7.0 mi Calm Calm - N/A   Mostly Cloudy
3:54 AM 50.0 °F - 48.2 °F 94% 29.68 in 3.0 mi Calm Calm - N/A   Scattered Clouds
4:15 AM 50.0 °F - 50.0 °F 100% 29.68 in 5.0 mi Calm Calm - N/A   Scattered Clouds
4:33 AM 50.0 °F - 50.0 °F 100% 29.68 in 5.0 mi Calm Calm - N/A   Mostly Cloudy
4:54 AM 50.0 °F - 46.4 °F 87% 29.69 in 5.0 mi Calm Calm - N/A   Mostly Cloudy
5:15 AM 50.0 °F - 48.2 °F 94% 29.70 in 7.0 mi Calm Calm - N/A   Overcast
5:33 AM 50.0 °F - 50.0 °F 100% 29.70 in 5.0 mi Calm Calm - N/A   Overcast
5:54 AM 50.0 °F - 48.2 °F 94% 29.70 in 5.0 mi Calm Calm - N/A   Overcast
6:15 AM 48.2 °F - 46.4 °F 93% 29.71 in 5.0 mi Calm Calm - N/A   Scattered Clouds
6:33 AM 46.4 °F - 46.4 °F 100% 29.71 in 5.0 mi Calm Calm - N/A   Scattered Clouds
6:54 AM 46.4 °F - 44.6 °F 93% 29.71 in 3.0 mi Calm Calm - N/A   Scattered Clouds
7:15 AM 46.4 °F - 44.6 °F 93% 29.71 in 5.0 mi Calm Calm - N/A   Clear
7:54 AM 44.6 °F - 42.8 °F 93% 29.72 in 3.0 mi Calm Calm - N/A   Clear
8:15 AM 44.6 °F - 42.8 °F 93% 29.72 in 4.0 mi Calm Calm - N/A   Scattered Clouds
8:36 AM 46.4 °F - 44.6 °F 93% 29.73 in 5.0 mi Calm Calm - N/A   Mostly Cloudy
8:54 AM 48.2 °F - 46.4 °F 93% 29.73 in 7.0 mi Calm Calm - N/A   Mostly Cloudy
9:15 AM 51.8 °F - 50.0 °F 94% 29.73 in 10.0 mi Calm Calm - N/A   Scattered Clouds
9:36 AM 53.6 °F - 51.8 °F 94% 29.74 in 10.0 mi Calm Calm - N/A   Scattered Clouds
9:39 AM 53.6 °F - 51.8 °F 94% 29.74 in 10.0 mi Calm Calm - N/A   Scattered Clouds
10:36 AM 57.2 °F - 55.4 °F 94% 29.72 in - Calm Calm - N/A   Unknown
10:54 AM 62.6 °F - 48.2 °F 59% 29.72 in 10.0 mi Calm Calm - N/A   Unknown
11:15 AM 66.2 °F - 46.4 °F 49% 29.72 in 10.0 mi WNW 3.5 mph - N/A   Clear
11:36 AM 64.4 °F - 42.8 °F 45% 29.72 in 10.0 mi West 10.4 mph - N/A   Clear
12:12 PM 68.0 °F - 42.8 °F 40% 29.72 in 10.0 mi West 6.9 mph - N/A   Clear
12:36 PM 68.0 °F - 42.8 °F 40% 29.72 in 10.0 mi WNW 9.2 mph - N/A   Clear
12:54 PM 68.0 °F - 42.8 °F 40% 29.71 in 10.0 mi NW 5.8 mph - N/A   Scattered Clouds
1:15 PM 66.2 °F - 42.8 °F 43% 29.71 in 10.0 mi WNW 6.9 mph - N/A   Scattered Clouds
1:36 PM 64.4 °F - 42.8 °F 45% 29.71 in 10.0 mi WNW 9.2 mph - N/A   Scattered Clouds
1:54 PM 64.4 °F - 42.8 °F 45% 29.71 in 10.0 mi West 6.9 mph - N/A   Mostly Cloudy
2:15 PM 64.4 °F - 41.0 °F 42% 29.71 in 10.0 mi West 10.4 mph 17.3 mph N/A   Overcast
2:36 PM 64.4 °F - 41.0 °F 42% 29.71 in 10.0 mi WNW 8.1 mph - N/A   Overcast
2:54 PM 64.4 °F - 39.2 °F 40% 29.70 in 10.0 mi West 8.1 mph - N/A   Overcast
3:15 PM 62.6 °F - 41.0 °F 45% 29.70 in 10.0 mi NNW 6.9 mph - N/A   Overcast
3:36 PM 62.6 °F - 41.0 °F 45% 29.70 in 10.0 mi NW 4.6 mph - N/A   Overcast
3:54 PM 62.6 °F - 41.0 °F 45% 29.71 in 10.0 mi NW 15.0 mph - N/A   Overcast
4:15 PM 62.6 °F - 41.0 °F 45% 29.72 in 10.0 mi NW 9.2 mph - N/A   Overcast
4:33 PM 60.8 °F - 41.0 °F 48% 29.73 in 10.0 mi NW 11.5 mph 20.7 mph N/A   Overcast
4:57 PM 60.8 °F - 39.2 °F 45% 29.75 in 10.0 mi NW 9.2 mph 21.9 mph N/A   Mostly Cloudy
5:15 PM 60.8 °F - 39.2 °F 45% 29.76 in 10.0 mi WNW 10.4 mph 19.6 mph N/A   Overcast
5:36 PM 59.0 °F - 39.2 °F 48% 29.76 in 10.0 mi NW 6.9 mph - N/A   Overcast
5:57 PM 59.0 °F - 41.0 °F 51% 29.77 in 10.0 mi NW 9.2 mph - N/A   Overcast
6:15 PM 59.0 °F - 37.4 °F 45% 29.78 in 10.0 mi WNW 5.8 mph 16.1 mph N/A   Overcast
6:36 PM 59.0 °F - 35.6 °F 42% 29.80 in 10.0 mi WNW 4.6 mph - N/A   Overcast
6:57 PM 57.2 °F - 35.6 °F 44% 29.82 in 10.0 mi West 5.8 mph - N/A   Overcast
7:15 PM 57.2 °F - 35.6 °F 44% 29.83 in 10.0 mi Calm Calm - N/A   Overcast
7:36 PM 55.4 °F - 35.6 °F 47% 29.84 in 10.0 mi WNW 9.2 mph - N/A   Overcast
7:57 PM 53.6 °F - 35.6 °F 51% 29.84 in 10.0 mi WNW 4.6 mph - N/A   Mostly Cloudy
8:15 PM 51.8 °F - 37.4 °F 58% 29.85 in 10.0 mi West 3.5 mph - N/A   Scattered Clouds
8:36 PM 51.8 °F - 35.6 °F 54% 29.86 in 10.0 mi NW 5.8 mph - N/A   Clear
8:57 PM 50.0 °F - 35.6 °F 58% 29.86 in 10.0 mi NW 3.5 mph - N/A   Clear
9:15 PM 48.2 °F - 37.4 °F 66% 29.86 in 10.0 mi Calm Calm - N/A   Clear
9:36 PM 46.4 °F 45.2 °F 37.4 °F 71% 29.87 in 10.0 mi West 3.5 mph - N/A   Clear
9:57 PM 50.0 °F - 37.4 °F 62% 29.88 in 10.0 mi WNW 8.1 mph - N/A   Clear
10:15 PM 50.0 °F - 37.4 °F 62% 29.88 in 10.0 mi WNW 5.8 mph - N/A   Clear
10:36 PM 48.2 °F - 37.4 °F 66% 29.88 in 10.0 mi Calm Calm - N/A   Clear
10:57 PM 46.4 °F - 37.4 °F 71% 29.89 in 10.0 mi Calm Calm - N/A   Clear
11:15 PM 44.6 °F 43.1 °F 37.4 °F 76% 29.90 in 10.0 mi WSW 3.5 mph - N/A   Clear
11:36 PM 42.8 °F 41.1 °F 37.4 °F 81% 29.90 in 10.0 mi West 3.5 mph - N/A   Clear
11:57 PM 44.6 °F - 37.4 °F 76% 29.90 in 10.0 mi Calm Calm - N/A   Clear